TEVEL2-9

Last updated on Mon Sep 21 2026 00:03:15 GMT+0000 (Coordinated Universal Time)

1 63237U 25052AD 26263.43953344 .00012030 00000+0 36111-3 0 9999 2 63237 97.3791 158.6914 0006841 144.4385 215.7315 15.34573559 84622
UTC large
Height (km)
Speed (km/s)
/
Latitude / Longitude
Inclination (degrees)
Orbital Period (minutes)
Azimuth
Elevation
Range (km)
Doppler Factor

Next 0 passes for location: London (51.5072 / 0.1276)

No passes found over London.
TEVEL2-9